CZ-4C R/B

Satellite information

Favourite Embed

Satellite Type and Status

ROCKET BODYIN ORBIT

Key statistics

Satellite CZ-4C R/B at a glance.

Uptime

1404

Days in orbit

Revolutions

≈ 14.6

Per day

Orbit

SSO

Sun Synchronous Orbit

Inclination

98.6

Latest

Satellite identification and parameters

Extended collection of information and parameters for CZ-4C R/B.

Object identification

Identified? True

Debris? False

Object name: CZ-4C R/B

International designator: 2021-062C

Object number (NORAD): 49010

Object ID (CCSDS): 49010

Country: PEOPLES REPUBLIC OF CHINA (PRC)

Current information (Y/N): Y

RCS size: LARGE

Orbital parameters

Period: 98.846 minutes

Inclination: 98.555 deg

SMA: 7081.61 km

Apoapsis: 798.37 km

Periapsis: 608.58 km

RAAN: 200.5288 deg

Eccentricy: 0.0134002

Argument of periapsis: 93.1326 deg

Mean anomaly: 268.5213 deg

Mean motion: 14.56816311 rev/day

Mean motion (dot): 0.0000062 rev/day2

B* drag term: 0.00013344 1/REarth

Two-line elements (TLE)

Creation date: May 7, 2025, 3:14 a.m.

Reference frame: TEME

Reference center: EARTH

Epoch: May 6, 2025, 7:27 p.m. UTC

TLE line 0: 0 CZ-4C R/B

TLE line 1: 1 49010U 21062C 25126.81078613 .00000620 00000-0 13344-3 0 9991

TLE line 2: 2 49010 98.5550 200.5288 0134002 93.1326 268.5213 14.56816311203959

Live tracking on map

Real-time ground track for satellite CZ-4C R/B.

In-orbit conjunctions

A list of the most updated potential collisions computed for object CZ-4C R/B.

Target Orbit TCA Probability of collision Miss distance Type
COSMOS 1375 DEB LEO 2024-10-04 19:17:56 0.0001066503 633.0 (m) DEBRIS

Associated space launch

The newer FY-3 series is an improved generation of polar-orbiting heliosynchronous weather satellites.

CZ-4C R/B was lifted into orbit during the mission ‘Long March 4C | Fengyun-3E’, on board a Long March 4C space rocket.

The launch took place on July 4, 2021, 11:28 p.m. from Launch Area 4 (SLS-2 / 603).

For more information about the launch, click the button.

Launch to space Long March 4C | Fengyun-3E
Long March 4C | Fengyun-3E

Agency: N/A

Status: Launch Successful

Launch date: July 4, 2021, 11:28 p.m. UTC

Rocket: Long March 4C

Launch pad: Launch Area 4 (SLS-2 / 603)

Location: Jiuquan Satellite Launch Center, People's Republic of China

...

Latest news about this satellite

News about space launch
China lofts Fengyun 3E polar weather satellite

China has successfully launched a new polar weather satellite, Fengyun 3E.  Liftoff of the mission took place at 23:28 UTC on 4 July 2021 from launch site SLS-2 at the Jiuquan Satellite Launch Center using a Chang Zheng 4C rocket.

News about space launch
China launches Fengyun weather satellite into polar orbit

A new Chinese Fengyun weather satellite launched Sunday and flew into an early morning polar orbit to feed data into global computer models, adding inputs that international weather officials said will improve medium and long-range forecasts.


Newsletter sign-up

Weekly statistics, charts and insights to help you stay on top of the space industry.